Location: Chandolas
(44.4033°N, 4.2533°E)
Time: 10:34:12
(UTC+00:00)

Cosmos 2360 - Pass Details

Date: 15 November 2019
Orbit: 845 x 857 km, 70.8° (Epoch: 08 December)

Event Time Altitude Azimuth Distance (km) Brightness Sun altitude
Exits shadow 04:20:24 57° 308° (NW) 1,004 4.2 -24.6°
Maximum altitude 04:21:29 72° 248° (WSW) 900 4.1 -24.4°
Drops below altitude 10° 04:27:10 10° 165° (SSE) 2,482 6.8 -23.4°
Sets 04:29:37 0° 163° (SSE) 3,414 7.6 -23.0°
